Temp
-8 -8 -8 -8 -8 -8 -8 -8 -8 -8 -9 -9 -8 -8 -8 -8 -8 -8 -8 -8 -7 -7 -7 -7 -6 -7 -7 -7 -7 -7 -7 -7 -8 -8 -9 -9 -10 -10 -10 -10 -10 -10 -10 -10 -10 -10 -10 -10 -10 -10 -10 -10 -9 -9 -9 -9 -9 -9 -9 -8 -8 -8 -8 -8 -8 -8 -8 -8 -8 -8 -8 -8 -8 -8
-8 -8 -8 -8 -8 -8 -8 -8 -8 -8 -8 -8 -8 -8 -8 -8 -8 -7 -8 -8 -8 -7 -7 -7 -7 -7 -7 -7 -7 -7 -7 -7 -8 -8 -8 -9 -10 -10 -10 -10 -10 -10 -10 -10 -10 -10 -10 -10 -10 -10 -10 -10 -9 -9 -9 -9 -9 -9 -9 -9 -8 -8 -8 -8 -8 -8 -8 -8 -8 -8 -8 -8 -8 -8
-9 -8 -8 -9 -9 -9 -8 -8 -8 -8 -8 -8 -8 -8 -8 -8 -8 -7 -7 -8 -8 -8 -7 -8 -8 -7 -7 -8 -7 -7 -7 -7 -8 -8 -9 -9 -9 -10 -10 -11 -11 -11 -10 -10 -11 -10 -10 -10 -10 -10 -10 -10 -10 -9 -9 -9 -9 -9 -9 -8 -8 -8 -8 -8 -8 -8 -8 -8 -8 -8 -8 -8 -8 -8
-9 -9 -9 -9 -9 -9 -9 -8 -8 -8 -8 -8 -8 -8 -8 -8 -7 -7 -7 -7 -8 -8 -8 -8 -8 -8 -8 -8 -8 -8 -8 -8 -8 -8 -9 -9 -10 -10 -10 -11 -11 -11 -11 -11 -11 -11 -11 -10 -10 -10 -10 -10 -10 -10 -10 -9 -9 -9 -9 -8 -8 -8 -8 -8 -8 -8 -8 -8 -7 -8 -7 -7 -7 -8
-9 -9 -9 -9 -9 -9 -9 -9 -8 -8 -8 -8 -8 -8 -8 -8 -7 -7 -7 -7 -7 -8 -8 -8 -8 -8 -9 -9 -9 -9 -9 -8 -9 -9 -9 -10 -10 -10 -11 -11 -11 -11 -11 -11 -11 -11 -11 -11 -11 -10 -10 -10 -10 -10 -10 -10 -9 -9 -9 -9 -8 -8 -8 -8 -8 -8 -8 -8 -7 -7 -7 -7 -7 -7
-9 -9 -9 -9 -9 -9 -9 -9 -9 -8 -8 -8 -8 -8 -8 -8 -7 -7 -8 -8 -7 -7 -8 -8 -8 -9 -9 -9 -9 -9 -9 -9 -9 -9 -10 -10 -10 -11 -11 -11 -12 -12 -12 -12 -12 -11 -11 -11 -11 -11 -11 -10 -10 -10 -10 -10 -10 -9 -9 -9 -9 -8 -8 -8 -8 -8 -8 -8 -7 -7 -7 -7 -7 -7
-9 -9 -9 -9 -9 -9 -9 -9 -9 -9 -9 -8 -8 -8 -8 -8 -8 -8 -8 -8 -8 -8 -8 -8 -8 -8 -9 -9 -9 -9 -9 -9 -9 -10 -10 -10 -10 -11 -11 -11 -12 -12 -12 -12 -12 -12 -12 -12 -12 -11 -11 -11 -11 -10 -10 -10 -10 -10 -9 -9 -9 -9 -8 -8 -8 -8 -8 -8 -7 -7 -7 -7 -7 -7
-9 -9 -9 -9 -9 -9 -9 -9 -9 -9 -9 -8 -8 -8 -8 -8 -8 -8 -8 -8 -8 -8 -8 -8 -8 -8 -9 -9 -9 -9 -9 -10 -10 -10 -10 -11 -11 -11 -11 -11 -12 -12 -12 -12 -12 -12 -12 -12 -12 -12 -12 -11 -11 -11 -11 -10 -10 -10 -10 -9 -9 -9 -9 -8 -8 -8 -8 -8 -8 -7 -7 -7 -7 -7
-10 -9 -9 -10 -10 -10 -10 -10 -9 -9 -9 -9 -9 -9 -9 -9 -8 -8 -8 -8 -8 -8 -8 -8 -8 -9 -9 -9 -9 -10 -10 -10 -10 -11 -11 -11 -11 -11 -11 -12 -12 -12 -12 -12 -13 -12 -12 -12 -12 -12 -12 -12 -12 -11 -11 -11 -10 -10 -10 -10 -9 -9 -9 -9 -8 -8 -8 -8 -8 -7 -7 -7 -7 -7
-10 -10 -10 -10 -10 -10 -10 -10 -10 -9 -9 -9 -9 -9 -9 -9 -9 -9 -9 -8 -8 -8 -8 -8 -8 -9 -9 -9 -9 -10 -10 -11 -11 -11 -11 -11 -12 -12 -12 -12 -12 -13 -13 -13 -13 -13 -13 -13 -13 -12 -12 -12 -12 -12 -11 -11 -11 -10 -10 -10 -10 -9 -9 -9 -9 -8 -8 -8 -8 -7 -7 -7 -7 -7
-10 -10 -10 -10 -10 -10 -10 -10 -10 -10 -10 -10 -9 -10 -10 -9 -9 -9 -9 -9 -9 -8 -9 -9 -9 -9 -10 -10 -10 -10 -11 -11 -11 -11 -12 -12 -12 -12 -13 -13 -13 -13 -14 -13 -13 -13 -13 -13 -13 -13 -13 -13 -13 -12 -12 -12 -11 -11 -10 -10 -10 -10 -9 -9 -9 -8 -8 -8 -8 -8 -7 -7 -7 -7
-10 -11 -10 -10 -10 -10 -10 -10 -10 -10 -10 -10 -10 -10 -10 -10 -9 -9 -9 -9 -9 -9 -9 -9 -9 -9 -10 -10 -10 -11 -11 -12 -12 -12 -12 -12 -13 -13 -13 -13 -13 -14 -14 -14 -14 -14 -14 -14 -14 -14 -14 -13 -13 -13 -12 -12 -12 -11 -11 -10 -10 -10 -9 -9 -9 -9 -8 -8 -8 -8 -7 -7 -7 -7
-11 -11 -11 -11 -10 -11 -11 -11 -11 -10 -10 -10 -10 -10 -10 -10 -10 -9 -9 -9 -9 -9 -9 -9 -10 -10 -10 -11 -11 -11 -12 -12 -12 -12 -13 -13 -13 -13 -13 -14 -14 -14 -14 -14 -14 -14 -14 -14 -14 -14 -14 -14 -14 -13 -13 -12 -12 -12 -11 -11 -10 -10 -10 -9 -9 -9 -9 -8 -8 -8 -7 -7 -7 -7
-11 -11 -11 -11 -11 -11 -11 -11 -11 -11 -11 -11 -11 -10 -10 -10 -10 -10 -10 -10 -9 -10 -10 -10 -10 -10 -10 -11 -11 -12 -12 -12 -13 -13 -13 -13 -13 -13 -13 -14 -14 -14 -14 -14 -14 -14 -15 -14 -14 -14 -14 -14 -13 -13 -13 -13 -12 -12 -12 -11 -10 -10 -10 -9 -9 -9 -9 -8 -8 -8 -8 -7 -7 -7
-11 -11 -11 -11 -11 -12 -11 -11 -12 -12 -11 -11 -11 -11 -10 -10 -10 -10 -10 -10 -10 -10 -10 -10 -11 -11 -11 -12 -12 -12 -12 -13 -13 -13 -13 -13 -13 -14 -14 -14 -14 -14 -14 -14 -14 -14 -15 -15 -14 -14 -14 -14 -14 -13 -13 -13 -12 -12 -12 -11 -11 -10 -10 -10 -9 -9 -9 -8 -8 -8 -8 -7 -7 -7
-10 -10 -11 -11 -12 -12 -12 -12 -12 -12 -12 -11 -11 -11 -10 -10 -10 -10 -10 -11 -11 -11 -11 -11 -11 -11 -11 -12 -12 -13 -13 -13 -13 -14 -14 -14 -13 -14 -14 -14 -14 -14 -14 -14 -14 -14 -15 -15 -14 -14 -14 -14 -14 -13 -13 -12 -12 -12 -11 -11 -11 -11 -10 -10 -10 -9 -9 -9 -8 -8 -8 -7 -7 -7
-11 -11 -11 -12 -12 -12 -12 -12 -12 -12 -12 -12 -11 -11 -11 -11 -11 -11 -11 -11 -11 -11 -11 -11 -11 -12 -12 -12 -13 -13 -13 -13 -14 -14 -14 -14 -14 -14 -14 -14 -14 -14 -14 -14 -14 -14 -15 -15 -14 -14 -14 -14 -14 -13 -13 -12 -12 -12 -11 -11 -11 -11 -10 -10 -10 -9 -9 -9 -9 -8 -8 -8 -7 -7
-11 -11 -11 -12 -12 -12 -12 -12 -12 -12 -12 -12 -12 -11 -11 -12 -12 -12 -12 -12 -12 -12 -12 -11 -11 -12 -12 -12 -13 -13 -13 -13 -13 -14 -14 -14 -14 -14 -14 -14 -14 -14 -14 -14 -14 -14 -14 -14 -14 -14 -14 -14 -14 -13 -12 -12 -12 -11 -11 -11 -11 -11 -10 -10 -10 -10 -9 -9 -9 -8 -8 -8 -7 -7
-11 -11 -11 -12 -12 -12 -12 -12 -12 -12 -11 -11 -11 -12 -12 -12 -12 -12 -12 -12 -12 -12 -12 -12 -12 -12 -13 -13 -13 -13 -14 -13 -13 -14 -14 -14 -14 -14 -14 -14 -14 -14 -14 -15 -14 -14 -14 -14 -14 -14 -15 -15 -14 -13 -12 -12 -12 -11 -11 -11 -10 -10 -10 -10 -10 -10 -10 -9 -9 -9 -8 -8 -8 -7
-11 -11 -12 -12 -12 -12 -12 -12 -12 -11 -11 -11 -12 -12 -12 -12 -12 -12 -13 -13 -13 -13 -13 -13 -13 -13 -13 -13 -13 -13 -14 -13 -13 -14 -14 -14 -14 -14 -14 -14 -14 -14 -15 -15 -15 -14 -13 -14 -14 -14 -15 -15 -14 -13 -13 -12 -12 -11 -11 -10 -10 -10 -10 -10 -10 -10 -10 -10 -9 -9 -9 -8 -8 -7
-11 -12 -12 -12 -12 -12 -12 -11 -11 -11 -12 -12 -12 -12 -12 -12 -13 -13 -13 -13 -13 -13 -13 -14 -14 -14 -13 -13 -13 -14 -14 -13 -14 -14 -14 -14 -14 -14 -14 -14 -14 -14 -15 -15 -15 -14 -13 -14 -15 -14 -14 -14 -14 -13 -13 -12 -12 -11 -11 -11 -10 -10 -10 -10 -10 -10 -10 -10 -9 -9 -9 -8 -8 -7
-12 -12 -12 -11 -11 -12 -11 -11 -11 -12 -12 -12 -12 -12 -13 -13 -13 -13 -14 -13 -13 -13 -13 -14 -14 -14 -14 -14 -14 -14 -14 -14 -14 -14 -14 -14 -14 -14 -14 -14 -14 -14 -15 -15 -15 -13 -13 -14 -15 -14 -14 -14 -14 -13 -13 -12 -12 -11 -11 -11 -10 -10 -10 -10 -10 -10 -10 -10 -9 -9 -9 -8 -8 -7
-11 -11 -11 -11 -11 -11 -11 -12 -12 -12 -12 -13 -12 -13 -13 -13 -13 -13 -14 -14 -14 -14 -14 -14 -14 -14 -14 -14 -14 -14 -14 -14 -14 -14 -14 -14 -14 -14 -14 -14 -14 -14 -15 -15 -14 -13 -14 -14 -15 -15 -14 -13 -13 -13 -12 -12 -12 -12 -11 -11 -10 -10 -10 -10 -10 -10 -10 -10 -9 -9 -8 -8 -8 -7
-11 -11 -11 -12 -12 -12 -12 -12 -12 -12 -13 -13 -13 -13 -13 -13 -13 -14 -14 -14 -14 -14 -15 -15 -15 -15 -14 -14 -14 -14 -14 -14 -14 -14 -15 -14 -14 -14 -14 -14 -14 -14 -14 -15 -14 -13 -14 -14 -14 -15 -14 -12 -12 -13 -12 -12 -11 -11 -11 -11 -10 -10 -10 -10 -10 -10 -10 -10 -9 -9 -8 -8 -8 -7
-12 -12 -12 -12 -12 -13 -13 -13 -13 -13 -13 -13 -13 -13 -13 -14 -14 -14 -14 -14 -14 -15 -15 -15 -15 -15 -15 -15 -15 -14 -14 -14 -14 -15 -15 -15 -14 -14 -14 -14 -14 -14 -14 -14 -14 -14 -14 -14 -14 -14 -14 -13 -12 -12 -12 -12 -11 -11 -11 -11 -10 -10 -10 -10 -10 -10 -10 -10 -9 -9 -8 -8 -8 -7
-12 -12 -12 -12 -13 -13 -13 -13 -13 -13 -13 -13 -14 -14 -14 -14 -14 -14 -14 -14 -15 -15 -15 -15 -15 -15 -15 -15 -15 -15 -14 -14 -15 -15 -15 -15 -15 -14 -14 -14 -14 -14 -14 -14 -15 -14 -14 -14 -14 -13 -13 -13 -12 -12 -12 -12 -12 -11 -10 -11 -11 -10 -10 -10 -10 -10 -10 -9 -9 -9 -9 -8 -8 -8
-13 -13 -13 -13 -13 -13 -13 -13 -13 -13 -14 -14 -14 -14 -14 -14 -14 -14 -14 -15 -15 -15 -15 -15 -15 -15 -15 -15 -15 -15 -15 -15 -15 -15 -15 -15 -15 -15 -14 -14 -14 -14 -14 -15 -15 -15 -14 -14 -14 -13 -13 -12 -12 -12 -12 -12 -12 -11 -10 -11 -11 -10 -10 -10 -10 -10 -9 -9 -9 -9 -9 -8 -8 -8
-13 -13 -13 -13 -13 -13 -13 -13 -14 -14 -14 -14 -14 -14 -14 -14 -14 -15 -15 -15 -15 -16 -16 -15 -15 -15 -15 -15 -15 -15 -15 -15 -15 -15 -15 -15 -15 -15 -15 -15 -15 -15 -15 -15 -15 -15 -15 -14 -13 -13 -13 -12 -12 -12 -12 -12 -12 -11 -11 -11 -11 -10 -10 -10 -10 -9 -9 -9 -9 -9 -8 -8 -8 -8
-13 -13 -13 -13 -13 -13 -14 -14 -14 -14 -14 -14 -14 -14 -14 -15 -15 -15 -15 -16 -16 -16 -16 -16 -16 -16 -16 -16 -15 -15 -15 -15 -15 -15 -15 -15 -15 -15 -15 -15 -15 -15 -15 -15 -15 -15 -15 -14 -14 -13 -13 -13 -12 -12 -12 -12 -12 -11 -11 -11 -11 -10 -10 -10 -9 -9 -9 -9 -8 -8 -8 -8 -8 -8
-14 -14 -14 -14 -14 -14 -14 -14 -14 -14 -14 -14 -14 -15 -15 -15 -15 -15 -16 -16 -16 -16 -16 -16 -16 -16 -16 -16 -16 -15 -15 -15 -15 -15 -15 -15 -15 -15 -15 -15 -15 -15 -15 -15 -15 -15 -15 -14 -14 -13 -13 -13 -13 -12 -12 -12 -11 -11 -10 -11 -11 -10 -10 -9 -9 -9 -9 -9 -8 -8 -8 -8 -8 -8
-14 -14 -14 -14 -14 -14 -14 -14 -14 -14 -14 -15 -15 -15 -15 -15 -15 -16 -16 -16 -16 -16 -16 -16 -16 -16 -16 -16 -16 -16 -15 -15 -15 -15 -15 -15 -15 -15 -15 -15 -15 -15 -15 -15 -15 -15 -15 -14 -14 -13 -13 -13 -13 -12 -12 -12 -11 -11 -11 -11 -11 -10 -10 -10 -9 -9 -9 -9 -9 -9 -8 -8 -8 -8
-14 -14 -14 -14 -14 -14 -15 -15 -15 -15 -15 -15 -15 -15 -15 -16 -16 -16 -16 -16 -16 -16 -16 -16 -16 -16 -16 -16 -16 -16 -16 -16 -15 -15 -15 -15 -15 -15 -15 -15 -15 -15 -15 -15 -15 -15 -15 -14 -14 -13 -13 -13 -13 -12 -12 -12 -12 -11 -11 -11 -11 -11 -10 -10 -10 -9 -9 -9 -9 -9 -8 -8 -8 -8
-14 -14 -14 -14 -14 -14 -14 -15 -15 -15 -15 -15 -15 -15 -16 -16 -16 -16 -16 -16 -16 -16 -16 -16 -16 -16 -16 -16 -16 -16 -16 -16 -16 -16 -16 -16 -16 -15 -15 -15 -15 -15 -15 -15 -15 -15 -15 -14 -14 -13 -13 -13 -13 -12 -12 -12 -12 -12 -11 -11 -11 -11 -11 -11 -10 -10 -9 -9 -9 -9 -9 -8 -8 -8
-14 -14 -14 -14 -14 -14 -14 -15 -15 -15 -15 -15 -15 -16 -16 -16 -16 -16 -16 -16 -16 -16 -16 -16 -16 -16 -16 -16 -16 -16 -16 -16 -16 -16 -16 -16 -16 -16 -15 -15 -15 -15 -15 -15 -15 -15 -15 -14 -14 -13 -13 -13 -13 -13 -13 -12 -12 -12 -12 -12 -11 -11 -11 -11 -11 -10 -10 -10 -10 -9 -9 -9 -9 -9
-15 -15 -15 -15 -15 -15 -15 -15 -15 -15 -15 -16 -16 -16 -16 -16 -16 -16 -16 -16 -16 -16 -16 -16 -16 -16 -16 -16 -16 -16 -16 -16 -16 -16 -16 -16 -16 -16 -16 -15 -15 -15 -15 -15 -15 -15 -15 -14 -14 -13 -13 -13 -13 -13 -13 -13 -12 -12 -12 -12 -12 -11 -11 -11 -11 -11 -10 -10 -10 -10 -10 -9 -9 -9
-15 -15 -15 -15 -15 -15 -15 -15 -16 -16 -16 -16 -16 -16 -16 -16 -16 -16 -16 -16 -16 -16 -16 -16 -16 -16 -16 -16 -16 -16 -16 -16 -16 -16 -16 -16 -16 -16 -16 -15 -15 -15 -15 -15 -15 -15 -15 -14 -14 -13 -13 -13 -13 -13 -13 -13 -12 -12 -12 -12 -12 -12 -12 -12 -11 -11 -10 -10 -10 -10 -10 -10 -10 -10
-15 -15 -15 -15 -15 -15 -16 -16 -16 -16 -16 -16 -16 -16 -16 -16 -16 -16 -16 -16 -16 -17 -17 -17 -17 -16 -17 -17 -16 -16 -16 -16 -16 -16 -16 -16 -16 -16 -16 -16 -16 -15 -15 -15 -15 -15 -15 -14 -14 -13 -13 -13 -13 -13 -13 -13 -12 -12 -12 -12 -12 -12 -12 -12 -12 -11 -11 -11 -11 -11 -11 -11 -11 -10
-15 -15 -15 -15 -15 -15 -15 -15 -16 -16 -16 -16 -16 -16 -16 -16 -16 -16 -16 -17 -17 -17 -17 -17 -17 -17 -17 -17 -17 -17 -17 -17 -17 -17 -16 -16 -16 -16 -16 -16 -16 -16 -15 -15 -15 -15 -15 -15 -14 -13 -13 -13 -13 -13 -13 -13 -12 -12 -12 -12 -12 -12 -12 -12 -12 -12 -12 -11 -11 -11 -11 -11 -11 -11
-15 -15 -15 -15 -15 -15 -15 -15 -16 -16 -16 -16 -16 -16 -16 -17 -17 -17 -17 -17 -17 -17 -17 -17 -17 -17 -17 -17 -17 -17 -17 -17 -17 -17 -17 -16 -16 -16 -16 -16 -16 -16 -16 -15 -15 -15 -15 -15 -14 -14 -13 -13 -13 -13 -13 -13 -13 -12 -12 -12 -12 -12 -12 -12 -12 -12 -12 -11 -11 -11 -11 -11 -11 -11
-15 -15 -15 -15 -15 -16 -15 -16 -16 -16 -16 -16 -16 -17 -17 -17 -17 -17 -17 -17 -17 -17 -17 -17 -17 -17 -17 -17 -17 -17 -17 -17 -17 -17 -17 -17 -16 -16 -16 -16 -16 -16 -16 -16 -16 -15 -15 -15 -15 -14 -14 -13 -13 -13 -13 -13 -12 -12 -12 -12 -12 -12 -12 -12 -12 -12 -12 -11 -11 -11 -10 -11 -11 -10
-16 -16 -16 -16 -16 -16 -16 -16 -16 -16 -16 -16 -17 -17 -17 -17 -17 -17 -17 -17 -17 -17 -17 -17 -17 -17 -17 -17 -17 -17 -17 -17 -17 -17 -17 -17 -17 -16 -16 -16 -16 -16 -16 -16 -16 -16 -16 -15 -15 -14 -14 -13 -13 -13 -13 -12 -12 -12 -12 -12 -12 -12 -12 -12 -12 -12 -11 -11 -11 -11 -11 -11 -10 -10
-16 -16 -16 -16 -16 -16 -16 -16 -16 -16 -16 -17 -17 -17 -17 -17 -17 -17 -17 -17 -17 -17 -17 -17 -17 -17 -17 -17 -17 -17 -17 -17 -17 -17 -17 -17 -17 -16 -16 -16 -16 -16 -16 -16 -16 -16 -16 -16 -15 -15 -14 -14 -14 -13 -13 -12 -12 -12 -12 -12 -12 -12 -12 -12 -12 -12 -11 -11 -11 -11 -11 -10 -10 -10
-16 -16 -16 -16 -17 -17 -17 -17 -17 -17 -17 -17 -17 -17 -17 -17 -17 -17 -17 -17 -17 -17 -17 -17 -17 -17 -17 -17 -17 -17 -17 -17 -17 -17 -17 -17 -17 -17 -16 -16 -16 -16 -16 -16 -16 -16 -16 -16 -16 -15 -15 -14 -14 -13 -13 -13 -12 -12 -12 -12 -12 -12 -12 -12 -12 -12 -11 -11 -11 -10 -10 -10 -10 -10
-16 -16 -17 -17 -17 -17 -17 -17 -17 -17 -17 -17 -17 -17 -17 -18 -18 -18 -18 -18 -18 -18 -17 -18 -18 -18 -18 -17 -17 -17 -17 -17 -17 -17 -17 -17 -17 -17 -17 -17 -16 -16 -16 -16 -16 -16 -16 -16 -16 -15 -15 -15 -14 -13 -13 -13 -12 -12 -12 -12 -12 -12 -11 -11 -11 -11 -11 -11 -10 -10 -10 -10 -10 -10
-17 -17 -17 -17 -17 -17 -17 -17 -17 -17 -17 -18 -18 -18 -18 -18 -18 -18 -18 -18 -18 -18 -18 -18 -18 -18 -18 -18 -18 -17 -17 -17 -17 -17 -17 -17 -17 -17 -17 -17 -17 -16 -16 -16 -16 -16 -16 -16 -16 -15 -15 -15 -14 -14 -13 -13 -13 -12 -12 -12 -12 -11 -11 -11 -11 -11 -11 -11 -10 -10 -10 -10 -9 -9
Height
5874 5873 5872 5871 5871 5870 5868 5867 5866 5865 5864 5863 5862 5861 5860 5860 5859 5858 5857 5855 5853 5852 5850 5847 5846 5845 5843 5841 5839 5836 5834 5832 5832 5831 5830 5830 5830 5830 5830 5829 5828 5828 5828 5828 5828 5827 5826 5826 5826 5826 5826 5827 5828 5828 5829 5830 5832 5834 5836 5838 5840 5842 5845 5848 5851 5854 5856 5859 5862 5865 5867 5870 5872 5875
5870 5869 5868 5867 5867 5866 5864 5863 5862 5861 5860 5858 5857 5856 5856 5855 5854 5854 5853 5851 5849 5848 5846 5843 5842 5840 5838 5837 5835 5833 5830 5828 5826 5825 5824 5823 5823 5823 5823 5823 5822 5822 5822 5822 5822 5821 5821 5820 5820 5821 5821 5821 5822 5822 5823 5824 5825 5827 5829 5831 5833 5836 5838 5841 5844 5847 5850 5853 5856 5859 5861 5864 5867 5870
5865 5865 5864 5863 5863 5862 5860 5859 5858 5857 5856 5854 5853 5852 5851 5850 5849 5849 5848 5847 5845 5843 5841 5839 5837 5835 5834 5832 5830 5828 5826 5824 5822 5819 5818 5817 5816 5815 5815 5815 5815 5815 5814 5815 5815 5815 5814 5814 5814 5814 5815 5815 5815 5816 5817 5818 5819 5820 5822 5824 5826 5829 5831 5834 5837 5840 5843 5847 5850 5853 5855 5858 5861 5864
5862 5861 5860 5860 5859 5858 5857 5855 5854 5853 5852 5850 5849 5848 5847 5846 5845 5844 5843 5842 5840 5838 5836 5835 5833 5831 5829 5826 5824 5823 5821 5818 5817 5814 5812 5810 5809 5808 5808 5808 5808 5807 5807 5806 5807 5807 5807 5807 5807 5807 5807 5808 5809 5809 5810 5811 5812 5813 5815 5817 5819 5821 5824 5827 5830 5833 5836 5839 5843 5846 5849 5852 5855 5858
5859 5858 5857 5856 5855 5854 5853 5852 5850 5849 5848 5847 5846 5845 5843 5842 5842 5841 5839 5837 5836 5834 5832 5830 5828 5826 5824 5821 5819 5817 5815 5813 5811 5808 5806 5805 5803 5801 5802 5801 5800 5799 5799 5798 5799 5799 5799 5800 5800 5800 5800 5801 5802 5802 5803 5804 5805 5806 5808 5809 5811 5814 5816 5819 5822 5825 5829 5832 5836 5839 5842 5846 5849 5852
5855 5854 5853 5852 5851 5850 5849 5848 5847 5846 5845 5844 5843 5841 5840 5838 5837 5836 5834 5832 5831 5829 5827 5825 5822 5820 5818 5815 5813 5810 5808 5806 5805 5802 5800 5799 5797 5795 5794 5794 5793 5792 5791 5791 5791 5791 5791 5791 5792 5792 5793 5794 5794 5795 5796 5797 5798 5799 5800 5802 5804 5806 5809 5812 5815 5818 5821 5825 5829 5832 5836 5839 5843 5846
5850 5850 5849 5848 5847 5846 5845 5844 5843 5842 5841 5840 5839 5837 5836 5835 5833 5832 5830 5828 5826 5824 5822 5820 5817 5814 5811 5809 5807 5804 5802 5800 5798 5796 5794 5793 5791 5789 5787 5786 5786 5785 5784 5784 5783 5783 5783 5783 5783 5783 5784 5785 5786 5787 5788 5789 5790 5791 5793 5795 5797 5799 5801 5804 5807 5810 5814 5817 5821 5825 5829 5832 5836 5839
5846 5845 5844 5844 5843 5842 5841 5840 5839 5838 5837 5836 5834 5833 5832 5831 5829 5827 5825 5824 5822 5819 5817 5814 5811 5808 5805 5802 5800 5798 5796 5794 5791 5789 5788 5786 5784 5782 5780 5779 5778 5778 5777 5777 5775 5775 5775 5775 5775 5775 5775 5776 5777 5778 5780 5781 5782 5784 5785 5787 5789 5791 5794 5797 5800 5803 5806 5810 5814 5818 5821 5825 5829 5833
5841 5840 5840 5839 5838 5837 5837 5836 5835 5833 5832 5831 5830 5829 5828 5826 5824 5822 5820 5819 5817 5815 5812 5809 5805 5801 5798 5796 5794 5791 5789 5787 5785 5783 5781 5779 5776 5775 5774 5771 5769 5769 5769 5769 5768 5767 5766 5766 5766 5767 5767 5767 5768 5770 5771 5773 5774 5776 5778 5779 5781 5783 5786 5789 5792 5795 5798 5802 5806 5810 5814 5818 5822 5826
5835 5835 5835 5834 5833 5832 5832 5831 5830 5829 5828 5827 5826 5825 5823 5822 5820 5818 5815 5814 5812 5810 5807 5804 5800 5796 5791 5789 5787 5784 5783 5781 5779 5776 5774 5771 5769 5769 5768 5765 5762 5761 5760 5760 5759 5759 5758 5757 5757 5758 5759 5759 5759 5760 5761 5763 5766 5767 5769 5771 5773 5775 5778 5781 5784 5787 5790 5794 5798 5802 5806 5811 5815 5819
5830 5830 5829 5828 5828 5827 5827 5826 5825 5824 5823 5822 5820 5820 5818 5816 5815 5812 5810 5808 5806 5803 5801 5798 5794 5790 5785 5782 5780 5778 5776 5774 5772 5769 5766 5764 5763 5761 5761 5759 5756 5753 5752 5751 5751 5751 5750 5750 5750 5750 5750 5751 5751 5751 5752 5754 5756 5758 5759 5762 5764 5766 5769 5772 5775 5778 5781 5785 5789 5793 5798 5803 5808 5812
5824 5824 5824 5824 5823 5822 5822 5821 5821 5819 5818 5816 5815 5814 5812 5810 5808 5806 5804 5802 5800 5797 5795 5791 5788 5784 5779 5776 5773 5771 5769 5767 5764 5762 5759 5758 5756 5754 5753 5752 5749 5747 5745 5744 5744 5743 5742 5742 5742 5741 5742 5742 5742 5742 5743 5745 5747 5748 5750 5752 5754 5756 5760 5763 5766 5770 5773 5777 5781 5785 5790 5795 5800 5804
5819 5819 5819 5819 5818 5818 5817 5816 5815 5814 5813 5811 5809 5807 5806 5804 5802 5800 5797 5795 5793 5791 5788 5784 5781 5777 5774 5770 5766 5764 5762 5759 5757 5755 5752 5750 5750 5747 5745 5744 5742 5740 5739 5738 5737 5736 5734 5734 5734 5734 5733 5734 5734 5734 5735 5736 5737 5740 5741 5742 5744 5747 5750 5753 5757 5761 5765 5769 5773 5777 5782 5787 5792 5797
5814 5814 5813 5813 5812 5812 5811 5810 5809 5808 5807 5806 5803 5802 5801 5799 5796 5794 5791 5789 5787 5784 5781 5778 5774 5771 5767 5763 5759 5757 5756 5753 5750 5748 5745 5744 5743 5740 5737 5737 5735 5733 5732 5732 5732 5731 5728 5726 5727 5727 5726 5726 5726 5726 5726 5727 5728 5730 5732 5733 5735 5738 5741 5744 5748 5752 5756 5760 5765 5769 5774 5779 5784 5789
5809 5808 5807 5806 5807 5806 5805 5804 5803 5802 5801 5799 5797 5796 5795 5793 5791 5788 5786 5783 5780 5777 5774 5770 5766 5764 5761 5757 5753 5750 5749 5747 5744 5741 5738 5737 5736 5733 5730 5730 5730 5727 5726 5725 5726 5725 5722 5719 5720 5721 5719 5719 5718 5717 5717 5719 5720 5721 5723 5725 5726 5729 5732 5735 5739 5743 5747 5752 5756 5761 5765 5770 5776 5781
5803 5803 5801 5801 5802 5801 5799 5799 5798 5797 5795 5793 5792 5791 5790 5787 5784 5782 5779 5777 5773 5771 5768 5764 5760 5756 5754 5751 5748 5744 5742 5740 5738 5735 5732 5731 5729 5727 5725 5724 5724 5722 5720 5719 5720 5720 5716 5713 5713 5715 5713 5711 5710 5709 5709 5711 5712 5713 5715 5717 5718 5720 5723 5727 5730 5734 5739 5743 5748 5753 5757 5762 5768 5773
5799 5798 5798 5797 5797 5796 5795 5794 5793 5791 5790 5788 5786 5784 5783 5780 5777 5775 5773 5769 5766 5764 5762 5759 5755 5751 5747 5745 5742 5739 5736 5734 5732 5729 5727 5726 5723 5721 5719 5718 5717 5716 5714 5713 5713 5714 5711 5706 5705 5707 5706 5702 5700 5700 5700 5701 5702 5704 5706 5709 5711 5712 5715 5719 5722 5726 5731 5735 5740 5745 5750 5754 5759 5765
5795 5794 5794 5792 5792 5791 5791 5789 5787 5786 5785 5784 5781 5778 5776 5773 5771 5769 5766 5763 5760 5757 5754 5752 5749 5746 5742 5739 5737 5734 5730 5728 5726 5724 5723 5721 5718 5716 5715 5713 5712 5711 5709 5707 5706 5706 5705 5700 5697 5698 5697 5693 5691 5690 5690 5691 5692 5694 5696 5699 5702 5705 5707 5710 5714 5718 5723 5727 5732 5737 5742 5746 5751 5757
5790 5789 5788 5787 5787 5786 5785 5784 5782 5780 5779 5778 5776 5773 5770 5767 5764 5762 5760 5757 5753 5750 5748 5745 5743 5740 5737 5734 5731 5729 5725 5722 5720 5719 5718 5716 5713 5711 5711 5709 5708 5706 5704 5702 5700 5699 5698 5694 5690 5690 5687 5683 5680 5679 5678 5679 5681 5683 5686 5689 5692 5696 5699 5702 5706 5710 5714 5718 5723 5728 5733 5739 5744 5749
5786 5785 5784 5783 5781 5781 5780 5778 5777 5775 5774 5772 5770 5767 5764 5761 5757 5755 5753 5751 5748 5744 5741 5739 5736 5733 5730 5728 5725 5723 5720 5718 5716 5714 5713 5711 5708 5706 5706 5705 5703 5701 5699 5697 5694 5691 5690 5687 5683 5681 5677 5673 5670 5669 5667 5668 5670 5673 5676 5679 5683 5687 5691 5694 5698 5702 5706 5710 5714 5719 5725 5730 5736 5741
5782 5780 5779 5778 5777 5775 5775 5773 5771 5769 5767 5765 5763 5760 5757 5754 5751 5748 5746 5744 5743 5740 5736 5732 5730 5727 5724 5722 5719 5717 5715 5713 5711 5710 5709 5706 5703 5702 5701 5699 5699 5697 5695 5692 5687 5683 5683 5681 5675 5671 5668 5664 5661 5660 5659 5660 5661 5663 5666 5669 5673 5678 5682 5686 5690 5693 5697 5701 5704 5710 5716 5722 5728 5733
5777 5776 5774 5773 5772 5770 5769 5767 5765 5762 5760 5757 5755 5753 5750 5747 5745 5742 5739 5736 5735 5734 5731 5727 5724 5721 5719 5716 5714 5712 5710 5708 5706 5704 5703 5701 5699 5698 5696 5694 5693 5692 5690 5686 5680 5676 5676 5674 5667 5661 5657 5657 5655 5652 5652 5653 5654 5655 5658 5661 5664 5669 5673 5677 5681 5685 5689 5692 5696 5702 5709 5715 5720 5725
5772 5771 5769 5767 5765 5764 5762 5760 5757 5755 5753 5750 5748 5746 5743 5740 5738 5736 5733 5730 5728 5726 5724 5721 5719 5716 5713 5711 5709 5707 5705 5703 5701 5699 5698 5696 5693 5692 5691 5688 5687 5686 5685 5680 5674 5670 5669 5666 5660 5653 5648 5648 5650 5647 5645 5647 5648 5647 5649 5652 5656 5660 5664 5669 5673 5677 5681 5684 5689 5695 5701 5707 5712 5717
5766 5765 5763 5761 5759 5757 5755 5753 5751 5749 5746 5743 5741 5739 5736 5734 5732 5729 5727 5724 5721 5719 5716 5714 5712 5710 5708 5706 5704 5702 5700 5698 5696 5694 5693 5691 5688 5686 5685 5684 5681 5680 5678 5673 5667 5663 5661 5657 5653 5649 5643 5640 5642 5643 5641 5640 5641 5641 5642 5645 5648 5652 5657 5661 5666 5670 5673 5677 5683 5689 5695 5700 5705 5709
5760 5758 5757 5755 5753 5751 5749 5747 5744 5742 5739 5736 5734 5732 5730 5728 5725 5723 5720 5717 5714 5712 5710 5708 5706 5704 5702 5700 5698 5697 5695 5693 5691 5689 5687 5686 5683 5681 5679 5678 5676 5674 5672 5667 5660 5655 5653 5649 5645 5643 5640 5636 5635 5637 5637 5636 5635 5635 5637 5639 5642 5645 5649 5653 5658 5662 5667 5672 5678 5684 5689 5694 5698 5703
5754 5752 5750 5748 5746 5744 5742 5740 5737 5735 5732 5730 5728 5726 5723 5721 5718 5716 5713 5710 5708 5706 5704 5702 5700 5698 5696 5694 5693 5691 5689 5687 5686 5684 5682 5680 5678 5676 5674 5672 5670 5668 5666 5662 5655 5648 5646 5644 5640 5636 5634 5633 5631 5631 5632 5632 5630 5630 5631 5633 5636 5638 5642 5646 5651 5656 5662 5667 5673 5678 5683 5687 5692 5697
5748 5746 5744 5742 5740 5737 5735 5733 5730 5728 5726 5724 5722 5719 5717 5715 5712 5709 5706 5704 5702 5700 5698 5696 5694 5692 5691 5689 5687 5686 5684 5682 5681 5679 5678 5676 5673 5671 5669 5666 5663 5661 5659 5656 5651 5645 5640 5638 5635 5631 5629 5628 5627 5626 5627 5627 5626 5625 5626 5628 5631 5634 5638 5643 5648 5653 5658 5663 5668 5672 5676 5680 5685 5691
5742 5740 5737 5735 5733 5731 5729 5727 5724 5722 5720 5718 5716 5713 5711 5708 5706 5703 5701 5698 5696 5694 5692 5690 5689 5687 5686 5684 5682 5681 5679 5677 5676 5675 5674 5672 5669 5667 5665 5662 5657 5654 5652 5649 5645 5641 5636 5632 5630 5628 5625 5623 5622 5622 5622 5622 5621 5621 5622 5624 5627 5630 5635 5640 5644 5649 5654 5658 5662 5666 5670 5675 5680 5685
5735 5733 5731 5729 5727 5725 5723 5721 5719 5717 5715 5712 5710 5707 5705 5702 5700 5697 5695 5693 5691 5689 5687 5685 5684 5682 5681 5679 5678 5676 5675 5673 5672 5671 5670 5668 5665 5663 5661 5658 5654 5650 5648 5644 5640 5636 5632 5628 5625 5624 5622 5620 5618 5618 5618 5618 5617 5617 5619 5621 5624 5627 5631 5636 5640 5645 5649 5653 5657 5662 5666 5670 5674 5679
5730 5728 5725 5723 5721 5719 5717 5715 5713 5711 5709 5707 5704 5702 5699 5696 5694 5692 5690 5688 5686 5684 5682 5680 5679 5677 5676 5675 5673 5672 5670 5669 5668 5667 5666 5664 5662 5659 5658 5655 5651 5647 5644 5640 5636 5632 5628 5624 5622 5620 5619 5618 5616 5614 5614 5614 5614 5615 5616 5619 5621 5624 5628 5632 5636 5640 5643 5647 5652 5656 5659 5664 5668 5673
5724 5722 5719 5717 5715 5713 5711 5710 5708 5706 5704 5701 5699 5696 5693 5691 5689 5687 5685 5683 5681 5679 5678 5676 5675 5673 5672 5670 5669 5667 5666 5665 5663 5662 5661 5660 5658 5656 5654 5652 5649 5645 5642 5638 5634 5629 5624 5621 5619 5617 5616 5615 5614 5613 5612 5612 5612 5613 5615 5616 5619 5622 5625 5628 5632 5635 5639 5642 5646 5650 5654 5659 5663 5667
5718 5716 5713 5711 5709 5708 5706 5705 5703 5700 5698 5695 5693 5690 5688 5686 5684 5682 5680 5678 5677 5675 5674 5672 5671 5670 5668 5666 5665 5664 5662 5661 5659 5658 5657 5656 5654 5653 5651 5648 5646 5643 5640 5637 5633 5628 5623 5619 5616 5615 5614 5613 5611 5611 5611 5611 5612 5613 5614 5615 5616 5619 5622 5625 5628 5631 5634 5638 5641 5645 5650 5654 5658 5661
5713 5711 5708 5706 5704 5702 5701 5699 5697 5694 5692 5689 5687 5685 5683 5681 5679 5677 5676 5674 5673 5671 5670 5668 5667 5666 5664 5663 5661 5660 5658 5657 5656 5654 5653 5652 5650 5649 5647 5645 5642 5640 5638 5635 5631 5627 5622 5618 5614 5612 5611 5610 5609 5609 5610 5610 5610 5612 5613 5614 5615 5617 5618 5620 5623 5627 5630 5633 5636 5640 5644 5648 5652 5656
5708 5705 5703 5700 5699 5697 5695 5693 5690 5688 5686 5684 5682 5680 5678 5676 5675 5673 5672 5670 5669 5668 5666 5665 5664 5662 5661 5659 5658 5657 5655 5653 5652 5651 5649 5648 5647 5645 5643 5641 5638 5636 5634 5631 5628 5624 5619 5616 5612 5610 5609 5608 5607 5607 5608 5609 5609 5610 5611 5612 5613 5614 5615 5616 5619 5622 5625 5628 5632 5635 5638 5642 5646 5650
5702 5700 5697 5695 5694 5692 5690 5687 5685 5683 5681 5679 5677 5675 5674 5672 5671 5670 5668 5667 5666 5664 5663 5662 5660 5659 5657 5656 5655 5653 5652 5650 5649 5647 5646 5644 5643 5641 5639 5637 5635 5632 5630 5627 5624 5620 5616 5612 5610 5608 5606 5605 5605 5605 5606 5607 5608 5608 5609 5610 5610 5612 5613 5614 5616 5619 5622 5626 5629 5632 5634 5637 5640 5645
5697 5695 5693 5690 5689 5687 5684 5682 5680 5678 5676 5674 5672 5671 5669 5668 5667 5666 5665 5663 5662 5661 5660 5658 5657 5655 5654 5653 5651 5650 5648 5647 5646 5644 5642 5640 5639 5638 5636 5634 5631 5629 5626 5624 5621 5617 5613 5609 5607 5605 5604 5603 5603 5604 5604 5605 5606 5606 5606 5607 5608 5608 5609 5611 5614 5617 5620 5623 5625 5627 5629 5631 5635 5640
5691 5690 5688 5686 5684 5682 5680 5678 5675 5673 5671 5669 5668 5667 5666 5664 5663 5662 5661 5660 5659 5658 5656 5655 5653 5652 5651 5649 5648 5646 5645 5644 5643 5641 5640 5638 5636 5634 5633 5631 5628 5626 5623 5621 5618 5615 5611 5607 5605 5603 5602 5601 5601 5602 5602 5603 5603 5604 5604 5605 5606 5607 5607 5609 5611 5612 5614 5616 5618 5622 5625 5627 5631 5636
5686 5684 5683 5681 5679 5677 5675 5673 5671 5669 5667 5665 5664 5663 5662 5661 5660 5659 5658 5657 5655 5654 5653 5652 5650 5649 5647 5646 5645 5643 5642 5641 5639 5638 5637 5635 5633 5632 5630 5628 5626 5623 5621 5618 5615 5612 5609 5606 5603 5601 5600 5599 5599 5600 5600 5600 5601 5602 5603 5604 5605 5605 5606 5607 5608 5609 5610 5612 5615 5619 5622 5625 5629 5633
5681 5679 5678 5676 5675 5673 5671 5669 5666 5664 5663 5661 5660 5659 5658 5657 5656 5655 5654 5653 5652 5651 5650 5648 5647 5646 5644 5643 5641 5640 5639 5638 5636 5635 5634 5632 5631 5629 5627 5626 5624 5621 5619 5616 5613 5610 5608 5605 5601 5599 5598 5597 5597 5597 5598 5598 5599 5599 5600 5601 5602 5603 5604 5605 5607 5608 5609 5611 5614 5617 5620 5624 5627 5631
5677 5675 5673 5672 5671 5669 5667 5664 5662 5661 5659 5658 5657 5656 5655 5654 5653 5652 5651 5650 5649 5648 5646 5645 5644 5642 5641 5640 5638 5637 5636 5635 5633 5632 5631 5630 5628 5627 5625 5623 5622 5619 5617 5615 5612 5609 5606 5603 5600 5597 5596 5595 5595 5595 5596 5596 5596 5597 5598 5598 5599 5600 5601 5602 5604 5605 5607 5609 5612 5616 5619 5622 5625 5629
5673 5671 5669 5668 5666 5664 5662 5660 5658 5657 5655 5654 5653 5652 5651 5651 5650 5648 5647 5646 5645 5644 5643 5642 5641 5639 5638 5637 5635 5634 5633 5632 5631 5629 5628 5627 5626 5624 5622 5621 5620 5618 5615 5613 5610 5608 5605 5601 5598 5596 5594 5593 5593 5593 5593 5593 5594 5595 5596 5597 5597 5598 5599 5600 5601 5603 5605 5607 5610 5612 5616 5619 5622 5626
5668 5666 5665 5663 5661 5659 5658 5656 5654 5653 5652 5651 5650 5649 5648 5647 5646 5645 5644 5643 5642 5641 5640 5639 5638 5636 5635 5634 5633 5631 5630 5629 5628 5627 5626 5624 5623 5622 5620 5619 5617 5616 5614 5611 5609 5606 5603 5600 5597 5594 5593 5591 5591 5591 5590 5591 5591 5592 5594 5595 5595 5596 5597 5598 5599 5601 5603 5606 5608 5610 5613 5616 5620 5624
5664 5661 5660 5658 5656 5655 5653 5651 5650 5649 5648 5647 5646 5645 5644 5643 5642 5641 5640 5639 5639 5638 5636 5635 5634 5633 5632 5631 5630 5629 5627 5626 5625 5624 5623 5622 5621 5619 5618 5616 5615 5614 5612 5610 5608 5605 5603 5599 5596 5594 5592 5590 5589 5589 5588 5588 5589 5590 5591 5593 5594 5594 5595 5596 5597 5598 5601 5604 5606 5608 5610 5613 5617 5621
5658 5657 5655 5653 5652 5650 5649 5647 5646 5645 5644 5643 5642 5641 5640 5639 5639 5638 5637 5636 5635 5634 5633 5632 5631 5630 5629 5628 5627 5626 5625 5623 5622 5621 5620 5619 5618 5617 5616 5614 5613 5612 5610 5608 5606 5604 5602 5599 5596 5594 5591 5589 5588 5587 5586 5586 5586 5587 5588 5590 5591 5592 5592 5593 5594 5596 5598 5601 5603 5605 5607 5609 5613 5618
5654 5652 5650 5649 5647 5646 5645 5643 5642 5641 5640 5639 5638 5637 5637 5636 5635 5634 5634 5633 5632 5631 5630 5629 5628 5627 5626 5625 5624 5623 5622 5621 5620 5618 5617 5617 5616 5615 5613 5612 5611 5610 5608 5607 5605 5603 5601 5599 5596 5594 5591 5589 5587 5586 5585 5584 5585 5585 5586 5587 5588 5589 5590 5590 5591 5593 5595 5597 5599 5601 5604 5607 5610 5615
Wind_Speed
28 28 28 28 27 27 27 26 25 24 23 24 25 26 27 28 29 31 32 33 34 34 36 38 38 37 37 38 39 41 41 41 41 41 41 40 39 40 41 42 43 44 45 45 45 47 48 48 48 47 47 47 47 47 48 48 47 47 48 50 51 51 50 50 50 50 50 49 47 46 45 44 42 40
29 29 29 29 28 28 28 27 26 25 25 26 27 28 28 29 31 32 32 32 34 35 36 38 39 40 39 39 40 42 43 44 44 45 45 45 44 42 41 42 43 44 45 45 45 46 47 48 48 48 48 48 48 48 48 49 49 49 50 50 52 53 53 52 51 51 51 51 50 48 47 46 45 43
29 30 30 30 29 29 28 28 27 26 26 27 28 29 30 30 31 32 33 33 35 37 38 39 41 42 41 41 42 43 44 45 46 48 49 48 48 47 44 43 43 43 45 46 46 47 47 48 48 49 49 49 50 50 49 49 49 50 52 52 53 54 55 54 53 53 53 52 52 51 49 48 47 46
30 30 31 31 30 29 29 28 28 27 27 28 29 30 31 31 32 33 34 35 37 39 41 41 43 43 42 42 43 44 45 46 47 49 51 51 51 50 47 45 43 43 44 45 46 47 48 48 49 49 49 50 51 51 51 50 49 50 52 53 54 55 56 56 56 55 54 54 54 53 52 50 49 48
31 31 31 32 30 29 29 29 29 29 28 29 30 31 31 32 32 34 36 38 39 40 43 44 45 45 44 44 45 45 46 47 48 50 51 52 53 52 49 46 44 44 44 45 46 47 49 50 50 50 50 50 51 52 52 51 50 49 50 52 55 56 57 57 58 57 56 56 55 55 54 53 51 49
31 31 32 32 31 30 29 29 30 30 29 30 31 30 30 32 33 34 37 39 40 41 43 45 47 47 46 46 47 47 47 48 49 50 51 51 52 53 52 49 46 44 44 45 45 46 47 50 51 52 52 52 51 52 53 53 52 51 50 50 53 56 58 59 59 59 58 57 57 57 56 55 53 51
33 32 32 33 33 32 31 30 30 30 30 30 30 29 29 32 34 36 37 39 41 42 43 44 46 48 48 48 49 49 49 49 50 51 51 50 51 52 53 52 49 46 45 45 46 46 46 48 50 52 53 54 53 53 54 55 55 54 52 51 51 54 58 60 60 61 60 59 58 58 57 56 54 52
34 32 32 34 34 33 32 31 30 30 29 28 27 26 29 32 35 37 37 38 40 42 43 45 46 47 49 50 50 50 50 50 50 51 51 51 52 53 54 55 54 51 48 47 47 47 47 48 48 50 52 53 55 55 55 56 56 56 55 54 52 52 55 59 62 62 62 61 60 59 58 57 55 54
35 33 32 33 34 34 32 30 30 29 27 26 25 26 29 32 35 36 37 37 38 40 42 44 46 48 50 50 51 51 50 50 51 52 53 53 54 54 54 55 55 53 51 49 49 49 50 50 50 49 49 51 53 55 56 57 58 58 57 56 55 53 54 57 61 63 63 63 62 61 59 58 57 55
36 33 32 32 33 33 31 29 30 29 27 26 26 27 30 33 34 36 37 37 38 39 41 42 45 49 51 51 52 52 52 51 52 53 54 54 54 53 52 52 53 52 50 50 50 50 50 51 51 50 49 50 50 52 54 56 58 60 60 59 58 56 55 55 59 63 64 64 64 63 62 60 59 57
38 35 32 32 33 32 30 30 30 31 30 29 29 30 33 34 35 36 37 37 38 40 41 42 45 49 52 53 53 54 53 53 53 54 54 54 53 52 50 50 50 49 49 48 48 48 49 49 50 50 50 50 51 51 52 53 55 58 61 62 61 59 57 56 58 62 65 65 65 64 64 62 61 59
39 37 34 33 33 32 31 32 32 32 32 31 32 33 35 36 37 37 39 40 41 42 43 45 48 50 53 54 54 54 54 54 54 54 54 53 51 49 48 47 47 46 46 46 45 46 47 47 48 49 49 50 51 52 51 50 51 53 57 60 62 61 60 58 58 61 65 66 66 65 65 64 63 61
39 38 37 36 35 35 34 34 34 32 32 32 35 36 37 37 37 38 40 43 44 44 46 48 50 51 53 55 55 54 54 54 54 53 53 51 48 47 47 44 43 43 43 43 42 42 43 44 44 45 47 49 50 51 52 51 50 49 52 56 60 62 61 60 59 60 64 67 67 67 66 65 64 63
39 39 39 40 38 36 37 38 38 36 35 36 38 39 38 39 39 40 42 45 47 47 48 50 51 52 53 54 54 54 54 54 53 52 51 48 46 46 46 42 41 41 41 39 38 37 39 41 42 43 46 48 49 51 52 52 50 48 48 52 57 60 61 61 60 60 63 66 68 68 67 65 65 64
41 41 43 42 38 35 36 38 39 40 40 41 42 42 42 43 44 45 45 46 48 49 49 50 52 53 53 52 53 53 53 52 51 50 49 47 45 44 44 41 39 40 39 37 35 34 37 40 41 42 45 47 50 52 53 52 51 50 48 48 52 56 59 61 61 61 62 64 67 69 69 67 65 65
43 43 42 40 37 36 37 38 38 38 40 41 42 43 43 45 46 46 45 46 48 49 49 50 52 53 52 51 51 52 52 50 48 48 47 46 44 42 41 39 38 37 37 36 33 33 36 39 41 41 44 47 51 54 54 52 51 51 48 47 49 52 56 59 61 62 62 63 65 68 69 69 67 65
42 41 40 39 38 36 37 38 39 38 38 40 43 44 43 44 44 45 46 48 50 49 49 48 50 52 51 50 50 50 49 47 46 46 45 44 42 39 38 38 36 35 35 35 34 33 35 40 43 42 43 47 51 54 56 54 52 51 49 46 47 50 53 56 59 62 63 63 64 66 69 69 68 67
36 36 37 38 37 35 35 37 38 37 36 38 42 45 46 45 45 46 48 50 51 51 50 49 49 50 50 50 49 48 46 45 45 45 43 40 39 37 36 36 35 34 34 36 36 35 37 42 44 43 43 46 50 53 56 56 55 53 50 47 45 47 50 52 56 60 63 64 64 65 67 69 70 68
31 32 33 33 33 33 34 36 37 37 37 39 42 44 45 46 47 48 49 51 53 53 52 51 50 50 49 49 49 46 44 44 45 44 41 38 38 36 34 33 33 33 35 36 37 38 39 42 44 42 42 45 48 52 54 55 55 54 52 49 46 45 47 49 52 55 60 64 65 65 66 68 69 69
28 30 31 33 34 34 35 37 38 39 41 43 43 43 44 46 49 50 50 51 53 53 53 52 51 50 49 49 47 44 43 43 44 42 38 36 37 36 34 32 32 32 33 33 36 40 40 41 42 40 40 43 46 49 51 53 54 53 52 51 48 45 45 47 50 52 56 62 66 67 66 67 68 70
28 30 32 33 33 35 39 40 41 42 43 43 43 43 45 47 49 51 52 52 52 52 52 52 50 49 48 48 46 44 42 42 43 41 37 35 37 36 34 33 32 31 31 31 37 41 39 39 41 39 37 38 40 44 46 48 50 50 50 50 49 47 46 46 48 51 54 60 66 68 67 67 67 69
31 33 35 35 35 37 40 41 41 42 43 43 43 44 46 47 49 52 53 54 53 52 51 50 48 47 47 46 44 42 41 41 42 40 37 36 37 36 35 35 33 31 29 32 38 41 38 38 40 39 35 33 33 37 40 42 45 47 46 46 47 48 48 47 48 52 55 60 65 67 67 67 67 68
34 35 37 38 39 39 39 39 40 41 43 44 45 45 46 48 50 51 53 53 53 52 50 48 46 46 45 44 42 40 39 40 41 40 38 37 38 37 36 36 35 32 30 33 39 41 38 37 39 39 36 30 27 31 35 34 36 40 41 40 42 45 47 48 50 52 57 61 63 64 65 66 67 68
37 37 36 37 37 38 38 38 40 41 43 44 45 46 47 48 50 51 52 52 51 50 48 45 44 44 44 42 40 38 38 40 40 39 38 37 38 38 37 36 35 34 33 36 40 40 39 39 39 37 35 31 26 26 29 29 30 32 35 36 39 42 46 49 51 53 57 60 60 60 62 64 66 68
37 36 35 35 37 38 39 40 41 42 43 44 45 46 48 49 50 51 51 50 49 47 45 43 43 43 42 41 39 37 38 39 40 39 37 36 38 39 38 36 34 34 34 37 41 42 41 41 39 33 30 31 29 24 24 27 28 29 31 34 37 42 47 51 52 53 55 56 55 55 57 60 64 67
36 35 35 37 39 40 41 42 42 43 44 45 46 47 49 50 50 50 49 49 47 45 43 42 42 41 40 39 37 36 37 39 39 38 36 36 37 38 37 36 35 34 34 36 41 44 44 41 38 31 27 28 29 25 22 24 28 29 29 33 38 42 48 52 52 51 52 52 50 51 54 57 60 63
35 36 37 38 39 40 42 43 44 45 45 46 47 49 49 50 49 49 48 47 45 43 42 41 39 39 38 37 36 35 36 38 37 36 34 35 37 37 36 35 36 36 36 37 40 44 45 41 34 29 27 26 24 23 22 23 27 29 28 31 36 40 45 48 48 48 48 49 49 51 53 55 57 59
37 37 38 39 40 41 43 44 45 46 46 47 48 49 48 48 47 47 45 43 42 41 40 38 37 36 35 34 34 34 35 36 35 33 32 33 35 35 34 34 36 37 38 39 41 43 44 41 32 26 25 25 22 20 20 23 27 28 27 28 33 37 41 43 43 43 45 46 48 50 51 52 54 56
37 38 39 40 42 43 44 45 45 46 46 47 47 46 45 45 44 43 42 41 39 38 37 36 34 33 32 32 32 33 34 34 33 31 31 32 33 33 32 33 35 37 38 39 41 42 43 40 33 26 23 23 22 20 19 19 23 26 25 26 30 34 37 39 40 41 43 44 46 48 50 51 52 54
37 39 40 42 43 44 44 44 44 44 44 45 44 44 43 43 42 41 40 39 37 36 34 33 31 31 30 30 31 32 32 32 31 30 30 30 32 32 31 31 34 36 38 39 41 42 42 39 33 25 20 19 20 20 18 16 18 21 22 24 27 31 34 38 40 41 43 44 46 48 50 51 52 53
38 40 41 41 41 42 42 42 42 42 43 43 43 42 42 41 40 40 39 37 35 33 32 30 29 29 29 30 30 31 31 30 30 30 29 30 31 31 30 31 32 34 36 37 39 40 41 39 32 24 19 18 18 19 17 14 15 17 20 22 25 28 31 34 38 39 40 42 44 47 49 50 51 52
39 39 39 40 40 40 40 40 41 41 41 41 41 40 39 39 39 39 37 34 32 31 30 29 28 28 28 29 30 30 30 30 30 30 30 29 30 30 30 30 32 32 33 34 36 37 38 37 31 22 18 17 18 18 16 15 16 17 19 20 23 26 28 30 33 35 37 39 42 45 47 49 50 51
37 38 39 40 41 40 39 39 39 38 37 37 37 36 37 38 37 36 34 32 30 29 29 28 28 28 28 29 29 28 29 29 29 30 29 29 28 29 29 30 32 32 32 33 33 33 34 33 28 21 17 18 19 18 17 17 17 18 19 20 22 24 26 28 31 33 34 37 41 44 47 48 49 50
39 41 41 41 40 39 38 36 35 34 33 33 33 34 36 36 35 32 30 29 28 28 27 27 27 27 27 27 27 27 27 28 29 29 28 28 27 27 28 30 31 32 32 32 32 32 31 29 25 20 19 19 20 18 17 18 18 17 18 20 20 22 25 27 29 32 34 35 37 40 44 47 48 50
43 42 40 39 38 37 36 34 33 32 31 32 34 35 35 34 31 29 27 27 27 26 26 26 26 26 26 26 26 26 27 27 28 28 28 27 27 27 28 29 30 31 32 32 32 32 31 29 23 19 19 19 19 18 17 18 19 17 18 18 18 20 26 29 29 30 33 34 34 35 36 40 44 47
42 40 38 37 37 36 35 33 32 32 33 34 34 34 33 30 28 27 26 26 26 25 25 25 25 25 26 26 25 26 26 26 26 27 27 27 27 27 28 29 30 30 31 31 31 30 30 28 23 17 17 18 18 18 17 18 19 19 19 20 18 19 24 29 29 29 31 34 35 34 33 35 39 42
40 38 37 37 36 35 34 33 33 33 34 34 33 31 30 28 27 26 25 25 25 25 25 25 25 25 25 25 25 25 26 26 26 26 26 26 27 27 27 28 28 29 30 31 30 29 28 26 22 17 16 17 17 17 17 18 19 20 20 21 19 18 21 25 28 29 32 36 38 35 33 34 36 39
38 37 36 35 34 32 32 32 32 32 32 31 30 29 28 27 26 25 25 25 25 25 25 25 25 25 25 24 25 25 25 25 25 25 25 25 26 26 27 26 26 27 28 29 29 28 26 23 20 18 16 16 16 17 16 17 20 21 21 19 18 18 21 24 26 28 31 35 37 36 35 33 33 36
36 35 34 32 30 30 30 31 30 30 29 29 28 27 27 26 25 25 25 25 25 25 25 24 24 24 24 24 23 24 24 25 25 24 25 25 25 26 26 25 25 26 27 27 28 28 25 20 17 17 17 16 15 16 16 17 19 22 21 20 19 19 21 24 26 26 29 32 34 35 37 36 33 36
34 33 32 31 30 30 30 30 29 29 28 28 27 27 26 26 25 24 24 25 25 25 25 24 23 23 23 23 23 23 24 24 24 24 24 24 24 25 25 24 24 24 25 26 26 26 25 20 16 15 17 16 16 15 15 16 19 21 22 21 20 19 21 24 26 25 27 30 31 32 35 36 35 37
34 34 34 33 32 31 30 30 30 29 28 28 27 26 26 25 25 24 24 24 25 25 25 24 23 22 22 22 23 23 24 24 23 23 23 23 23 24 24 24 23 22 23 24 24 23 24 22 17 12 12 14 15 15 16 17 19 21 22 23 22 21 21 23 23 22 23 26 29 31 33 36 37 39
36 36 35 34 32 31 30 30 30 29 28 28 27 26 25 25 24 24 24 24 25 25 25 24 23 22 22 22 23 23 24 24 23 23 23 22 23 23 24 23 22 21 21 22 22 22 22 23 20 13 9 11 13 14 16 18 19 20 21 23 23 23 23 24 26 25 24 25 28 29 31 34 37 39
36 35 34 32 31 30 30 30 29 28 28 27 26 26 25 24 24 24 24 24 25 25 24 24 23 22 22 22 23 23 24 24 23 23 23 22 22 22 23 22 21 20 20 20 20 20 19 21 21 16 10 8 10 11 14 17 19 20 20 20 21 23 25 27 30 29 25 26 31 33 32 34 38 39
33 32 31 30 29 29 29 29 28 27 27 26 26 25 25 24 24 24 24 24 24 24 24 23 23 22 22 22 23 23 23 23 23 23 23 23 22 21 22 22 21 20 18 18 19 18 17 18 20 18 13 9 6 7 10 14 17 18 18 17 18 21 24 27 32 32 25 22 30 37 37 36 39 39
30 30 30 29 28 28 28 28 27 26 26 26 25 25 24 24 24 24 24 24 24 23 23 23 23 23 23 23 23 23 24 23 23 23 23 22 21 21 21 21 20 19 18 17 17 17 16 17 18 18 17 13 7 4 6 9 13 16 16 17 17 19 21 24 29 31 27 21 27 39 41 37 38 39
Wind_Direction
278 281 281 282 282 283 283 282 282 284 288 290 290 291 293 295 298 301 301 300 299 300 301 302 303 303 302 301 300 299 297 296 295 293 290 285 280 275 273 272 272 271 270 269 267 266 265 263 261 259 256 252 250 248 248 247 247 246 245 244 243 241 240 239 239 238 238 238 237 236 235 235 233 232
277 280 281 281 282 282 281 281 282 285 289 291 292 293 294 295 298 300 300 300 299 299 300 301 301 301 300 298 297 295 294 294 294 294 292 290 287 283 278 274 272 271 270 270 268 267 265 264 262 259 257 254 251 249 247 247 246 245 244 244 242 241 240 239 238 237 237 237 237 236 236 235 233 232
275 278 280 280 280 280 280 280 283 286 289 292 294 295 295 296 299 300 299 299 300 299 299 300 301 299 298 296 294 292 291 290 291 292 292 292 291 289 286 281 277 274 272 271 270 267 265 264 262 260 257 254 252 250 248 247 247 246 244 243 242 241 240 238 237 236 235 235 235 236 236 235 234 233
272 275 277 277 277 278 279 280 283 286 290 294 295 295 295 295 296 299 298 297 298 300 299 300 300 299 297 295 292 290 289 288 288 289 291 292 292 291 289 286 283 279 276 273 271 269 266 263 261 260 257 254 252 250 250 248 247 246 245 244 242 241 240 238 237 236 235 234 234 235 235 235 235 234
270 271 273 274 275 277 279 280 282 285 290 294 295 294 293 292 292 295 296 295 294 296 299 299 299 299 297 294 292 290 288 287 287 288 289 291 291 291 290 288 284 281 277 274 272 270 268 265 261 259 257 254 252 250 250 249 248 247 246 245 243 241 239 238 237 236 234 233 233 234 234 235 235 234
269 269 270 271 273 275 278 280 283 285 289 293 294 293 293 293 292 291 293 294 292 292 295 297 297 297 296 294 292 290 288 287 287 287 288 290 291 291 290 288 285 282 278 275 273 271 270 268 264 260 257 254 252 250 249 249 249 248 248 247 245 242 239 238 237 236 234 233 232 233 233 234 234 234
269 267 268 270 271 274 277 282 286 287 289 292 293 293 293 293 292 290 290 292 291 291 292 293 294 295 294 292 290 288 287 287 286 287 288 289 289 289 289 288 287 284 281 277 275 274 273 271 268 264 260 256 253 251 249 248 249 249 249 248 247 244 241 238 237 236 235 233 232 232 232 233 233 233
270 268 268 270 273 275 279 284 287 287 289 292 292 293 294 292 291 291 290 289 290 290 291 291 292 293 292 291 289 288 287 286 286 287 289 289 288 288 288 288 287 285 283 280 278 277 275 272 269 266 263 259 255 252 250 249 248 248 248 248 247 246 243 239 237 236 236 234 233 232 231 231 232 232
270 269 270 272 274 276 280 283 284 285 287 290 291 294 297 296 294 292 290 289 289 289 290 290 292 292 291 290 289 288 287 287 288 288 289 288 287 287 286 286 286 285 283 281 279 277 274 271 268 264 262 260 257 255 252 249 248 247 248 248 247 246 244 241 238 236 235 235 233 232 231 231 231 232
269 270 271 273 274 276 278 279 280 280 283 287 291 296 300 301 299 294 291 290 291 291 291 291 291 292 291 290 290 289 288 289 290 290 289 288 288 287 286 285 285 284 283 280 278 276 273 270 267 265 263 261 259 257 254 251 249 247 247 247 246 246 244 242 238 236 235 234 234 233 231 230 230 231
267 269 270 271 272 274 274 273 274 278 283 289 293 298 304 305 302 299 296 295 296 296 295 292 291 291 291 290 290 290 290 291 291 290 290 290 290 289 287 285 284 283 282 280 278 275 272 269 268 267 265 263 261 258 255 253 250 247 246 245 245 244 243 241 239 236 234 234 233 233 232 231 230 230
267 267 268 270 271 271 270 269 271 276 283 290 295 298 303 306 304 302 300 300 300 299 296 292 291 291 291 291 291 291 291 292 292 292 292 293 292 291 288 286 285 283 281 280 278 275 273 271 269 268 266 264 263 260 257 254 251 248 246 244 243 241 240 240 238 235 234 233 232 232 231 231 230 230
269 267 267 268 268 267 268 269 271 275 282 288 292 296 300 303 303 302 302 302 301 296 292 290 290 291 291 291 291 290 291 292 293 294 295 295 294 291 289 287 285 282 280 279 278 276 274 272 270 269 267 265 264 262 259 256 253 250 247 244 242 239 238 238 237 235 233 232 231 231 231 230 229 229
270 269 267 266 266 266 268 269 269 271 277 282 287 292 298 301 303 302 302 300 295 290 288 289 290 291 291 291 290 290 291 293 294 295 295 295 294 291 289 287 285 282 281 279 278 276 274 272 270 269 268 266 265 263 261 258 256 252 247 244 241 239 236 236 235 234 232 231 230 230 230 229 229 228
269 269 267 267 268 270 272 273 272 272 276 280 284 289 294 297 300 300 297 293 289 288 289 290 291 291 291 291 290 291 292 294 295 295 294 294 293 291 288 286 284 283 282 280 279 277 275 273 272 272 270 268 266 264 262 260 258 255 249 244 241 239 236 234 234 233 232 231 229 229 229 229 228 228
269 268 269 272 276 277 276 278 278 277 281 286 287 289 293 295 295 294 290 287 287 288 289 290 291 292 291 290 291 292 294 295 295 294 294 294 293 290 287 285 284 283 282 281 280 277 276 277 276 275 274 272 268 265 263 261 259 257 253 246 242 240 236 234 233 233 232 231 229 228 229 229 228 227
275 274 278 284 286 285 282 281 280 278 283 290 292 294 297 295 292 289 287 286 287 288 288 288 289 291 291 291 291 293 295 295 294 292 293 294 292 289 287 286 285 284 284 283 281 278 278 280 280 279 278 275 270 266 264 262 259 257 255 250 244 241 237 234 233 233 232 231 230 229 228 228 228 227
283 285 289 291 290 287 284 283 282 281 283 290 294 296 296 293 289 287 286 286 287 289 289 288 289 289 290 290 291 294 296 295 293 292 294 293 289 288 288 287 286 285 286 285 283 280 280 282 283 283 282 276 270 265 263 262 259 257 255 252 248 243 239 235 233 233 232 231 231 230 228 228 227 227
289 290 291 291 288 285 282 281 282 284 288 294 294 292 290 289 286 284 284 286 288 289 289 289 290 290 290 290 292 295 296 295 293 294 295 292 289 289 290 288 287 287 287 286 284 283 283 284 285 287 284 277 269 264 261 259 258 256 254 252 249 245 241 236 233 232 232 232 231 230 229 228 227 227
286 286 285 284 283 281 279 278 280 286 293 296 293 288 286 284 283 283 284 285 287 289 290 290 291 291 290 291 293 295 296 294 293 294 295 292 290 291 291 289 288 287 286 287 287 285 286 289 291 291 287 279 270 263 260 257 255 255 253 250 248 244 240 235 232 230 231 231 231 230 230 228 227 227
284 286 287 286 284 282 282 282 284 289 292 291 288 285 283 282 282 283 285 286 286 288 290 291 291 292 291 292 294 296 295 293 293 294 294 291 290 292 293 291 289 288 289 291 290 289 292 298 300 297 290 282 273 265 260 257 255 254 252 250 247 242 238 233 228 227 229 231 230 229 229 229 228 227
284 287 289 290 288 287 288 290 291 289 287 286 285 283 282 282 283 285 286 286 287 288 289 290 291 292 292 293 294 295 295 294 295 296 295 291 291 293 294 292 290 290 293 295 293 293 298 305 308 304 292 281 275 269 263 259 258 256 253 249 245 241 236 230 223 223 226 230 230 229 228 229 228 227
283 285 288 290 291 292 292 292 290 286 284 283 283 283 283 283 284 285 286 287 288 289 290 290 291 291 291 292 294 294 294 295 296 297 296 294 293 294 294 293 292 292 295 297 295 296 304 313 317 312 296 279 268 265 264 262 259 256 252 247 242 238 233 226 220 221 225 229 230 229 228 228 229 228
283 284 286 289 292 292 290 288 285 283 282 282 282 282 283 284 285 286 286 287 289 290 291 291 291 291 290 291 292 293 293 295 297 297 297 295 295 295 294 294 294 295 299 300 299 302 312 319 322 315 298 281 268 260 260 263 259 253 248 242 236 233 229 222 219 221 225 228 229 229 228 228 229 228
285 286 289 290 290 289 287 286 284 283 283 283 283 284 285 286 287 287 288 289 290 291 291 292 291 291 290 291 292 293 293 295 297 297 296 296 296 295 295 295 296 298 302 305 305 309 318 323 321 311 293 281 277 267 256 257 258 252 244 236 230 227 224 220 219 221 225 227 228 228 228 228 229 229
286 287 289 290 289 288 288 288 287 287 286 286 286 286 287 288 288 289 289 290 292 292 292 291 291 291 291 291 292 293 293 295 297 297 296 297 296 296 296 297 298 302 306 309 311 314 320 324 320 306 286 277 278 273 258 252 252 250 243 233 228 224 221 220 220 221 223 225 225 225 226 227 229 230
283 286 289 290 289 289 289 289 288 288 287 287 287 288 288 289 289 290 291 292 293 293 292 292 292 291 291 291 292 293 293 295 296 295 294 296 297 297 298 300 302 307 311 313 314 316 319 323 320 305 288 279 275 272 264 255 248 245 239 231 226 224 222 221 221 221 222 223 222 222 224 225 227 229
284 289 291 291 290 289 289 288 288 288 287 287 288 288 288 289 289 290 291 293 293 293 293 294 294 292 292 292 293 293 294 296 295 293 292 296 298 297 299 302 305 310 314 315 316 318 321 322 321 310 295 287 280 273 267 258 248 241 233 226 222 222 223 224 223 221 220 221 221 221 223 224 226 228
289 291 291 290 289 289 288 287 287 287 287 287 288 288 289 290 291 292 293 294 295 295 295 295 295 294 293 293 293 294 295 296 295 290 290 294 297 298 301 304 307 310 314 316 317 319 321 322 320 311 298 289 283 280 274 261 247 237 228 220 216 216 220 224 224 222 222 222 221 221 222 223 225 226
290 291 291 290 289 288 288 288 288 288 288 289 289 290 291 292 292 293 295 296 297 298 297 297 296 295 294 294 294 295 296 297 295 290 289 292 297 300 303 305 307 310 314 316 318 319 321 322 319 311 299 288 282 282 278 261 242 230 221 215 213 214 215 219 222 223 223 222 221 221 221 221 223 224
293 294 293 292 291 289 289 289 289 289 289 290 290 291 291 291 292 294 297 299 300 300 299 298 296 296 296 296 296 297 297 298 297 294 291 291 294 299 303 304 306 310 313 316 318 319 320 321 318 310 299 287 277 276 271 255 236 225 217 211 212 214 215 218 221 224 224 223 222 222 222 222 222 223
297 296 295 294 292 290 289 289 289 289 289 290 290 290 290 290 293 297 301 302 302 301 300 298 297 297 297 296 296 298 298 298 298 296 294 292 293 296 300 303 305 309 312 314 317 318 318 317 313 304 295 285 275 268 261 249 235 227 221 215 213 215 217 218 221 223 224 224 223 223 223 223 223 223
298 298 297 295 293 291 290 289 288 289 289 290 290 290 291 293 297 301 303 303 302 301 300 299 298 298 296 296 296 297 297 297 297 296 295 294 293 295 298 302 305 308 311 313 315 316 316 314 308 296 285 282 276 267 258 250 240 233 230 228 225 223 223 222 222 223 224 223 223 222 222 221 222 223
298 299 298 295 293 292 291 291 291 291 291 291 290 291 293 297 300 301 301 301 301 301 300 299 298 297 295 295 296 296 297 296 296 295 295 295 295 296 298 302 304 307 310 313 316 318 317 315 308 292 279 277 276 269 260 250 242 238 237 236 235 233 232 228 223 222 222 222 220 220 219 219 220 221
300 299 297 295 293 292 292 293 293 292 291 290 291 292 295 298 299 299 299 300 300 300 299 299 298 297 296 296 297 297 297 297 296 296 297 297 298 299 300 301 303 307 309 313 318 322 320 316 307 289 274 270 270 268 260 248 242 239 232 228 232 237 235 231 225 221 220 222 222 219 217 218 220 220
300 298 295 293 293 293 293 293 292 290 289 290 291 292 294 295 296 296 298 299 299 299 300 300 300 299 298 298 298 298 298 298 298 299 299 300 300 301 301 302 304 307 310 313 319 324 322 316 308 292 276 270 267 264 257 245 240 236 228 226 234 241 235 229 225 219 214 217 222 220 214 214 217 219
299 296 293 293 294 294 295 294 292 290 290 290 290 292 293 293 294 295 297 298 299 300 300 301 301 301 300 300 300 300 300 299 299 300 301 301 301 301 301 303 305 308 311 314 319 325 325 319 310 298 284 275 266 258 252 243 236 234 232 231 235 242 236 226 222 218 214 214 218 219 215 213 214 215
297 295 294 294 296 297 297 295 292 290 289 289 290 290 291 291 293 295 296 297 298 300 301 302 302 302 301 301 301 301 301 301 300 301 302 302 302 301 301 304 306 308 311 314 318 324 328 327 319 307 292 277 264 255 250 244 236 234 236 233 229 233 233 224 218 220 219 217 217 219 219 217 216 214
296 296 295 296 298 298 296 294 291 289 288 288 288 289 289 291 293 294 295 297 299 301 302 302 302 302 301 302 303 303 303 302 301 302 302 303 303 302 302 304 307 309 311 314 317 322 329 332 327 312 297 283 268 257 252 247 240 236 235 232 226 224 225 222 222 225 223 217 215 218 221 220 218 215
297 297 297 297 298 297 295 293 291 290 288 287 287 288 289 290 292 293 295 297 299 301 301 302 303 302 302 304 305 304 304 304 303 302 302 303 303 303 303 306 308 309 311 313 315 320 328 336 332 312 297 287 275 262 253 246 241 237 235 232 227 223 225 226 226 226 221 213 210 213 217 218 216 213
295 295 296 297 297 295 294 293 292 290 289 287 287 288 289 291 292 293 295 297 300 301 301 302 303 303 304 305 305 304 304 304 304 304 304 304 304 303 303 306 308 309 310 312 315 320 328 336 339 326 306 298 288 269 254 245 240 238 236 233 228 225 226 223 217 211 211 212 211 210 212 214 212 210
294 295 295 295 295 294 293 292 291 291 289 288 288 290 291 292 293 295 297 298 299 300 300 301 303 303 304 304 304 304 304 304 304 305 306 306 305 304 304 306 308 309 311 312 316 321 327 334 341 342 325 309 297 276 257 247 241 238 236 233 231 231 229 223 216 211 207 207 209 211 212 212 211 209
295 295 295 294 293 293 292 291 291 291 290 290 291 293 294 295 296 296 297 298 298 298 299 300 302 302 302 302 302 302 302 303 304 304 305 306 307 305 305 306 308 311 312 312 315 320 326 332 338 343 340 321 302 283 265 253 247 244 240 236 237 241 240 235 231 226 215 204 205 209 211 210 210 209
295 294 294 294 294 293 292 292 293 293 292 292 294 295 296 297 297 296 296 296 296 297 298 299 300 301 300 299 299 299 300 301 302 302 302 304 305 305 306 306 308 310 312 313 315 319 324 328 333 340 348 344 314 279 267 260 253 248 241 235 239 245 248 247 241 234 227 215 208 208 209 207 205 205
296 296 296 296 296 295 295 294 294 294 293 294 295 296 296 296 295 295 295 295 296 296 298 298 299 299 298 297 296 296 297 298 299 299 299 301 302 303 305 306 307 309 311 313 315 318 321 326 331 338 345 349 339 284 259 257 255 250 239 233 237 241 248 255 249 242 245 244 216 205 206 204 200 200